SCP
0 0 0 0 0 0 0 0 0 0 0 0 0 0 0 0 0 0 0 0 0 0 0 0 0 0 0 0 0 0 0 0 0 0 0 0 0 0 0 0 0 0 0
0 0 0 0 0 0 0 0 0 0 0 0 0 0 0 0 0 0 0 0 0 0 0 0 0 0 0 0 0 0 0 0 0 0 0 0 0 0 0 0 0 0 0
0 0 0 -0 -0 -0 0 0 0 0 0 0 0 0 0 0 0 0 0 0 0 0 0 0 0 0 0 0 0 0 0 0 0 0 0 0 0 0 0 0 0 0 0
-0 -0 -0 -0 -0 -0 -0 0 0 0 0 0 0 0 0 0 0 0 0 0 0 0 0 0 0 0 0 0 0 0 0 0 0 0 0 0 0 0 0 0 0 0 0
-0 0 0 0 0 0 0 0 0 0 0 0 0 0 0 0 0 0 0 0 0 0 0 0 0 0 0 0 0 0 0 0 0 0 0 0 0 0 0 0 0 0 0
0 0 0 0 0 0 0 0 0 0 0 0 0 0 0 0 0 0 0 0 0 0 0 0 0 0 0 0 0 0 0 0 0 0 0 0 0 0 0 0 0 0 0
0 0 0 0 0 0 0 0 0 0 0 0 0 0 0 0 0 0 0 0 0 0 0 0 0 0 0 0 0 0 0 0 0 0 0 0 0 0 0 0 0 0 0
0 0 0 0 0 0 0 0 0 0 0 0 0 0 0 0 0 0 0 0 0 0 0 0 0 0 0 0 0 0 0 0 0 0 0 0 0 0 0 0 0 0 0
0 0 0 0 0 0 0 0 0 0 0 0 0 0 0 0 0 0 0 0 0 0 0 0 0 0 0 0 0 0 0 0 0 0 0 0 0 0 0 0 0 0 0
0 0 0 0 0 0 0 0 0 -0 -0 -0 -0 0 0 0 0 0 0 0 0 0 0 0 0 0 0 0 0 0 0 0 0 0 0 0 0 0 0 0 0 0 0
-0 0 0 -0 -0 0 0 0 0 0 0 0 0 -0 0 0 0 0 0 0 0 0 0 0 0 0 0 0 0 0 0 0 0 0 0 0 0 0 0 0 0 0 0
0 0 0 0 -0 -0 -0 0 0 0 0 0 0 0 0 0 0 0 0 0 0 0 0 0 0 0 0 0 0 0 0 0 0 0 0 0 0 0 0 0 0 0 0
-0 -0 0 0 0 0 0 -0 0 0 0 0 0 0 0 0 0 0 0 0 0 0 0 0 0 0 0 0 0 0 0 0 0 0 0 0 0 0 0 0 0 0 0
-0 -0 -0 0 0 0 0 0 -0 -0 0 0 0 -0 0 0 0 0 0 0 0 0 0 0 0 0 0 0 0 0 0 0 0 0 0 0 0 0 0 0 0 0 0
-0 -0 -0 -0 0 0 0 0 0 0 0 0 0 0 -0 0 0 0 0 0 0 0 0 0 0 0 0 0 0 0 0 0 0 0 0 0 0 0 0 0 0 0 0
0 0 0 0 -0 -0 -0 0 0 -0 -0 -0 -0 -0 -0 0 0 0 0 -0 0 0 0 0 0 0 0 0 0 0 0 0 0 0 0 0 0 0 0 0 0 0 0
0 0 -0 -0 -0 -0 -0 -0 -0 -0 0 -0 -0 0 -0 -0 0 0 0 -0 0 0 0 0 0 0 0 0 0 0 0 0 0 0 0 0 0 0 0 0 0 0 0
0 -0 -0 -0 -0 -0 -0 -0 -0 -0 -0 -0 -0 -0 -0 0 0 0 0 0 0 0 0 0 0 0 0 0 0 0 0 0 0 0 0 0 0 0 0 0 0 0 0
0 -0 -0 -0 -0 -0 -0 -0 -0 -0 -0 -0 -0 0 0 0 -0 0 0 0 0 0 0 0 0 0 0 0 0 0 0 0 0 0 0 0 0 0 0 0 0 0 0
0 0 0 0 0 0 -0 -0 -0 -0 -0 -0 -0 -0 -0 0 0 0 0 0 0 0 0 0 0 0 0 0 0 0 0 0 0 0 0 0 0 0 0 0 0 0 0
0 0 0 0 0 0 0 0 0 -0 -0 -0 -0 -0 -0 -0 -0 -0 0 0 0 0 0 0 0 0 0 0 0 0 0 0 0 0 0 0 0 0 0 0 0 0 0
0 0 0 0 0 0 0 0 0 0 0 0 -0 -0 -0 -0 -0 -0 0 0 0 0 0 0 0 0 0 0 0 0 0 0 0 0 0 0 0 0 0 0 0 0 0
0 0 0 0 0 0 0 0 0 0 0 0 -0 -0 -0 -0 -0 -0 -0 0 0 0 0 0 0 0 0 0 0 0 0 0 0 0 0 0 0 0 0 0 0 0 0
0 0 0 0 0 0 0 0 0 0 0 0 -0 -0 -0 -0 -0 0 0 0 0 0 0 0 0 0 0 0 0 0 0 0 0 0 0 0 0 0 0 0 0 0 0
0 0 0 0 0 0 0 0 0 0 0 0 0 0 -0 -0 -0 -0 0 0 0 0 0 0 0 0 0 0 0 0 0 0 0 0 0 0 0 0 0 0 0 0 0
0 0 0 0 0 0 0 0 0 0 0 0 0 0 0 0 0 -0 -0 0 0 0 0 0 0 0 0 0 0 0 0 0 0 0 0 0 0 0 0 0 0 0 0
Wind_Speed_500mb
70 66 62 50 36 32 35 40 49 54 68 79 85 93 97 99 103 101 99 98 95 92 90 86 84 79 75 68 59 53 48 43 34 22 13 10 13 9 9 11 11 8 6
58 55 46 41 36 34 30 34 43 51 57 70 80 91 96 101 103 102 104 102 100 98 96 92 88 83 80 74 69 62 57 51 41 26 17 10 13 22 21 20 16 12 6
39 50 53 51 44 33 26 29 33 45 56 63 73 84 92 92 100 108 108 106 103 101 98 94 91 87 84 81 74 69 62 57 48 39 25 11 12 16 22 28 29 26 17
56 72 75 69 60 46 26 22 32 36 51 63 72 79 84 90 95 99 98 102 103 103 103 100 96 92 86 83 76 71 65 63 57 46 39 33 26 17 14 23 26 29 22
61 81 78 76 64 55 40 35 29 30 40 51 62 70 77 77 81 83 88 97 103 105 105 103 100 96 91 84 80 76 75 69 62 57 47 40 34 28 26 20 23 25 21
61 60 54 61 64 60 55 43 34 31 30 39 55 62 66 74 75 77 80 82 96 102 103 103 101 97 92 91 86 83 79 74 68 62 56 49 44 34 28 29 27 27 24
57 62 60 59 59 64 62 58 54 42 32 33 41 53 62 67 69 73 73 76 81 94 100 103 102 99 97 94 90 87 83 81 77 71 65 56 49 40 32 30 30 29 23
57 57 62 59 60 60 62 57 52 48 44 39 38 41 53 65 70 67 66 67 69 72 83 93 98 98 97 94 90 89 87 85 82 77 70 61 55 47 40 34 32 30 29
67 66 64 68 68 62 60 59 54 47 45 39 35 35 40 51 59 61 59 65 67 67 71 79 91 94 94 95 95 95 94 90 87 83 76 70 63 55 48 42 37 35 29
66 66 63 63 66 65 63 58 58 60 57 53 46 36 37 42 53 54 46 54 59 66 68 71 79 88 94 97 99 100 99 96 94 90 85 80 72 65 57 48 42 40 37
56 57 57 54 56 63 68 66 60 60 56 55 57 57 47 39 42 47 43 48 60 68 71 71 77 83 88 97 102 105 104 101 99 98 95 89 81 75 66 57 51 45 40
49 53 58 60 63 69 70 69 71 72 64 62 59 58 55 54 46 43 45 47 54 65 76 76 79 84 89 88 101 110 110 109 108 106 103 97 90 83 74 65 54 47 43
43 53 59 66 68 69 74 73 73 71 70 67 64 60 59 59 57 54 47 46 52 57 68 78 84 90 91 95 97 106 112 112 111 109 107 104 99 93 84 73 62 55 47
54 44 49 55 58 60 63 71 69 69 69 63 64 65 64 63 65 64 57 54 55 57 61 73 78 88 93 99 100 105 110 112 113 113 111 110 107 99 91 79 67 61 55
46 47 42 57 50 55 59 59 65 71 71 71 67 66 68 67 68 64 65 65 64 65 61 68 73 83 92 97 103 108 113 116 116 119 118 116 111 103 94 86 78 71 66
55 56 50 54 57 57 56 62 67 70 75 76 73 74 70 72 72 73 72 69 73 69 63 67 73 80 94 94 98 103 110 115 122 126 125 122 118 111 102 94 84 74 70
51 54 49 55 59 57 56 58 61 64 68 74 80 83 82 77 77 75 74 74 70 74 69 64 69 77 84 90 94 100 109 115 119 126 130 132 123 117 110 101 91 82 75
54 57 55 61 62 58 59 63 62 62 68 76 80 85 91 91 84 84 82 76 71 67 70 64 64 68 78 83 90 93 106 118 116 121 128 131 128 122 118 105 97 92 82
56 59 58 67 72 68 66 67 69 69 75 79 82 86 91 96 98 93 91 90 80 71 62 68 62 66 72 75 75 86 102 112 117 116 120 128 130 124 123 113 104 95 84
60 65 66 71 78 81 80 82 83 84 86 90 96 99 98 100 103 104 100 97 88 80 66 64 66 63 67 68 71 75 96 113 118 113 116 121 126 124 124 116 109 98 89
67 67 68 79 85 86 88 92 95 98 100 101 101 104 110 114 112 111 111 107 100 90 78 68 65 67 63 65 64 72 89 103 111 111 118 124 126 120 114 110 104 95 83
74 73 83 90 93 92 96 104 111 110 111 115 121 124 120 119 120 120 116 110 104 93 86 80 71 74 66 63 55 66 85 91 105 109 110 112 111 109 107 102 94 86 89
79 86 90 94 98 103 101 108 121 119 124 132 137 136 134 129 121 121 121 112 106 100 91 84 83 84 69 62 55 62 75 100 100 93 95 96 95 101 95 101 95 93 92
84 84 91 104 115 117 112 108 118 119 124 132 134 131 127 126 122 117 116 109 105 102 98 88 86 88 85 73 59 66 75 98 96 83 76 78 75 88 92 86 80 90 86
91 92 93 96 114 121 121 114 111 110 112 112 113 110 110 107 109 109 104 99 97 88 91 88 82 86 89 83 76 63 77 98 101 88 66 60 65 76 77 85 82 77 76
98 107 106 100 106 107 111 102 99 94 96 100 97 90 88 90 90 91 102 95 85 76 82 75 75 78 74 71 74 57 67 89 105 89 79 76 86 99 92 87 85 82 78
Wind_Direction_500mb
318 320 329 335 338 321 289 270 260 253 244 238 234 232 233 233 234 233 232 232 231 230 229 228 228 228 229 230 228 225 225 225 226 229 247 283 288 246 214 191 179 184 217
331 345 356 358 349 334 312 278 255 248 240 237 238 235 234 233 234 233 231 229 229 229 230 229 230 230 229 226 225 225 224 223 222 222 228 240 248 248 231 221 216 216 239
353 9 9 4 352 335 314 294 269 254 251 241 236 235 236 237 236 233 230 229 227 228 229 230 231 232 231 230 228 226 226 228 228 228 223 208 218 198 227 233 235 235 244
24 19 15 10 357 343 292 281 286 269 261 255 246 237 236 237 239 237 234 231 228 228 228 229 230 231 232 230 230 229 227 228 230 229 233 242 241 216 225 229 228 226 233
33 22 10 8 2 1 351 319 298 280 266 258 257 252 247 243 244 242 239 232 229 228 228 228 229 229 229 229 229 227 226 227 229 233 231 235 236 236 236 239 232 233 231
12 14 13 11 13 12 14 12 359 332 299 280 271 263 257 253 245 240 238 235 232 230 231 230 230 230 229 228 226 225 226 227 229 234 241 240 239 240 238 239 239 235 238
12 9 7 13 16 18 23 19 14 7 345 313 291 283 274 267 260 255 247 240 233 230 231 231 230 230 229 228 226 225 225 225 227 231 234 238 239 245 247 247 246 243 236
23 25 23 21 17 16 17 20 21 18 7 352 331 311 293 281 272 264 259 253 248 244 239 234 231 232 231 229 228 228 227 227 227 228 229 233 236 239 247 251 245 241 240
26 27 26 23 20 20 19 17 11 9 4 0 345 327 308 294 286 276 267 261 258 252 246 239 237 235 232 229 228 227 228 227 228 230 230 232 234 235 240 246 246 244 241
17 19 20 19 16 16 16 15 17 14 8 359 349 341 324 306 292 282 276 272 264 258 252 246 242 239 235 231 228 228 227 226 228 229 230 232 232 233 235 239 242 243 243
11 11 10 9 8 7 11 9 5 2 3 358 354 345 331 320 299 286 281 272 267 261 256 250 247 241 238 235 232 230 229 227 227 228 230 231 231 232 234 234 234 235 237
3 4 3 6 7 7 5 7 7 4 1 356 352 353 343 328 314 310 304 294 279 269 263 255 251 248 242 237 236 234 230 227 226 227 229 230 229 230 232 233 234 234 236
10 2 0 0 1 2 357 357 357 357 359 357 354 350 348 348 341 320 305 297 291 280 268 261 254 249 245 241 237 236 234 232 230 230 230 231 230 230 230 232 233 236 236
357 355 349 356 350 351 355 351 352 351 347 350 349 349 351 351 347 344 329 308 297 290 280 268 262 256 250 245 241 236 235 233 233 233 231 232 232 232 232 232 235 236 236
347 352 337 344 343 345 345 343 342 343 343 343 342 341 337 339 343 343 345 337 310 296 287 282 268 259 250 245 243 239 236 234 232 232 232 232 232 232 234 233 232 233 234
339 338 333 337 338 338 337 334 335 336 337 338 338 336 334 334 336 336 338 337 333 310 291 282 277 268 258 249 243 241 241 238 235 233 231 231 230 229 229 230 229 234 236
325 328 324 326 327 329 330 330 330 330 329 329 331 333 333 330 332 330 329 326 325 326 309 287 279 272 267 258 250 244 241 239 238 236 234 232 229 228 227 226 228 230 232
319 320 319 318 319 317 319 319 320 324 327 327 325 326 329 330 326 325 323 320 316 313 317 308 286 277 271 266 258 250 246 243 239 239 238 236 233 228 227 224 226 228 228
316 314 312 312 312 310 313 312 312 314 316 315 316 318 320 321 322 323 320 317 312 303 306 312 304 282 273 268 262 255 246 242 241 238 238 237 236 230 227 224 225 226 225
312 310 307 308 310 310 311 310 308 307 308 309 309 310 311 312 312 313 314 313 309 303 301 300 304 295 279 269 262 254 249 243 236 235 238 238 237 233 227 226 224 223 223
309 310 307 308 309 308 308 305 305 305 306 304 301 301 303 305 304 304 304 307 308 304 298 292 294 294 283 270 259 248 242 246 242 237 233 233 233 230 227 226 225 226 227
307 309 309 308 307 306 307 306 304 306 303 300 298 298 296 296 296 296 296 298 299 298 295 290 283 280 280 268 255 245 230 242 244 243 240 238 234 231 224 226 225 223 224
308 309 309 308 306 305 306 303 302 302 300 298 297 296 295 293 290 290 289 291 293 292 288 284 279 274 276 274 259 242 227 235 239 240 241 240 231 229 223 223 221 219 214
308 310 308 307 305 306 305 300 299 298 298 298 298 297 295 293 290 287 285 286 285 284 283 281 279 275 270 267 259 238 225 227 234 239 237 236 229 221 217 210 217 210 209
310 309 307 306 305 306 304 304 303 303 301 299 297 296 296 296 294 290 285 282 278 275 274 275 274 270 270 265 265 249 223 219 225 227 225 214 196 196 194 189 199 203 205
312 311 312 312 313 313 312 310 309 306 302 299 296 294 294 294 293 290 289 277 271 265 261 257 257 269 268 271 265 260 240 218 223 216 218 210 202 200 198 201 199 207 208
Wind_Speed_850mb
70 66 62 50 36 32 35 40 49 54 68 79 85 93 97 99 103 101 99 98 95 92 90 86 84 79 75 68 59 53 48 43 34 22 13 10 13 9 9 11 11 8 6
58 55 46 41 36 34 30 34 43 51 57 70 80 91 96 101 103 102 104 102 100 98 96 92 88 83 80 74 69 62 57 51 41 26 17 10 13 22 21 20 16 12 6
39 50 53 51 44 33 26 29 33 45 56 63 73 84 92 92 100 108 108 106 103 101 98 94 91 87 84 81 74 69 62 57 48 39 25 11 12 16 22 28 29 26 17
56 72 75 69 60 46 26 22 32 36 51 63 72 79 84 90 95 99 98 102 103 103 103 100 96 92 86 83 76 71 65 63 57 46 39 33 26 17 14 23 26 29 22
61 81 78 76 64 55 40 35 29 30 40 51 62 70 77 77 81 83 88 97 103 105 105 103 100 96 91 84 80 76 75 69 62 57 47 40 34 28 26 20 23 25 21
61 60 54 61 64 60 55 43 34 31 30 39 55 62 66 74 75 77 80 82 96 102 103 103 101 97 92 91 86 83 79 74 68 62 56 49 44 34 28 29 27 27 24
57 62 60 59 59 64 62 58 54 42 32 33 41 53 62 67 69 73 73 76 81 94 100 103 102 99 97 94 90 87 83 81 77 71 65 56 49 40 32 30 30 29 23
57 57 62 59 60 60 62 57 52 48 44 39 38 41 53 65 70 67 66 67 69 72 83 93 98 98 97 94 90 89 87 85 82 77 70 61 55 47 40 34 32 30 29
67 66 64 68 68 62 60 59 54 47 45 39 35 35 40 51 59 61 59 65 67 67 71 79 91 94 94 95 95 95 94 90 87 83 76 70 63 55 48 42 37 35 29
66 66 63 63 66 65 63 58 58 60 57 53 46 36 37 42 53 54 46 54 59 66 68 71 79 88 94 97 99 100 99 96 94 90 85 80 72 65 57 48 42 40 37
56 57 57 54 56 63 68 66 60 60 56 55 57 57 47 39 42 47 43 48 60 68 71 71 77 83 88 97 102 105 104 101 99 98 95 89 81 75 66 57 51 45 40
49 53 58 60 63 69 70 69 71 72 64 62 59 58 55 54 46 43 45 47 54 65 76 76 79 84 89 88 101 110 110 109 108 106 103 97 90 83 74 65 54 47 43
43 53 59 66 68 69 74 73 73 71 70 67 64 60 59 59 57 54 47 46 52 57 68 78 84 90 91 95 97 106 112 112 111 109 107 104 99 93 84 73 62 55 47
54 44 49 55 58 60 63 71 69 69 69 63 64 65 64 63 65 64 57 54 55 57 61 73 78 88 93 99 100 105 110 112 113 113 111 110 107 99 91 79 67 61 55
46 47 42 57 50 55 59 59 65 71 71 71 67 66 68 67 68 64 65 65 64 65 61 68 73 83 92 97 103 108 113 116 116 119 118 116 111 103 94 86 78 71 66
55 56 50 54 57 57 56 62 67 70 75 76 73 74 70 72 72 73 72 69 73 69 63 67 73 80 94 94 98 103 110 115 122 126 125 122 118 111 102 94 84 74 70
51 54 49 55 59 57 56 58 61 64 68 74 80 83 82 77 77 75 74 74 70 74 69 64 69 77 84 90 94 100 109 115 119 126 130 132 123 117 110 101 91 82 75
54 57 55 61 62 58 59 63 62 62 68 76 80 85 91 91 84 84 82 76 71 67 70 64 64 68 78 83 90 93 106 118 116 121 128 131 128 122 118 105 97 92 82
56 59 58 67 72 68 66 67 69 69 75 79 82 86 91 96 98 93 91 90 80 71 62 68 62 66 72 75 75 86 102 112 117 116 120 128 130 124 123 113 104 95 84
60 65 66 71 78 81 80 82 83 84 86 90 96 99 98 100 103 104 100 97 88 80 66 64 66 63 67 68 71 75 96 113 118 113 116 121 126 124 124 116 109 98 89
67 67 68 79 85 86 88 92 95 98 100 101 101 104 110 114 112 111 111 107 100 90 78 68 65 67 63 65 64 72 89 103 111 111 118 124 126 120 114 110 104 95 83
74 73 83 90 93 92 96 104 111 110 111 115 121 124 120 119 120 120 116 110 104 93 86 80 71 74 66 63 55 66 85 91 105 109 110 112 111 109 107 102 94 86 89
79 86 90 94 98 103 101 108 121 119 124 132 137 136 134 129 121 121 121 112 106 100 91 84 83 84 69 62 55 62 75 100 100 93 95 96 95 101 95 101 95 93 92
84 84 91 104 115 117 112 108 118 119 124 132 134 131 127 126 122 117 116 109 105 102 98 88 86 88 85 73 59 66 75 98 96 83 76 78 75 88 92 86 80 90 86
91 92 93 96 114 121 121 114 111 110 112 112 113 110 110 107 109 109 104 99 97 88 91 88 82 86 89 83 76 63 77 98 101 88 66 60 65 76 77 85 82 77 76
98 107 106 100 106 107 111 102 99 94 96 100 97 90 88 90 90 91 102 95 85 76 82 75 75 78 74 71 74 57 67 89 105 89 79 76 86 99 92 87 85 82 78
Wind_Direction_850mb
318 320 329 335 338 321 289 270 260 253 244 238 234 232 233 233 234 233 232 232 231 230 229 228 228 228 229 230 228 225 225 225 226 229 247 283 288 246 214 191 179 184 217
331 345 356 358 349 334 312 278 255 248 240 237 238 235 234 233 234 233 231 229 229 229 230 229 230 230 229 226 225 225 224 223 222 222 228 240 248 248 231 221 216 216 239
353 9 9 4 352 335 314 294 269 254 251 241 236 235 236 237 236 233 230 229 227 228 229 230 231 232 231 230 228 226 226 228 228 228 223 208 218 198 227 233 235 235 244
24 19 15 10 357 343 292 281 286 269 261 255 246 237 236 237 239 237 234 231 228 228 228 229 230 231 232 230 230 229 227 228 230 229 233 242 241 216 225 229 228 226 233
33 22 10 8 2 1 351 319 298 280 266 258 257 252 247 243 244 242 239 232 229 228 228 228 229 229 229 229 229 227 226 227 229 233 231 235 236 236 236 239 232 233 231
12 14 13 11 13 12 14 12 359 332 299 280 271 263 257 253 245 240 238 235 232 230 231 230 230 230 229 228 226 225 226 227 229 234 241 240 239 240 238 239 239 235 238
12 9 7 13 16 18 23 19 14 7 345 313 291 283 274 267 260 255 247 240 233 230 231 231 230 230 229 228 226 225 225 225 227 231 234 238 239 245 247 247 246 243 236
23 25 23 21 17 16 17 20 21 18 7 352 331 311 293 281 272 264 259 253 248 244 239 234 231 232 231 229 228 228 227 227 227 228 229 233 236 239 247 251 245 241 240
26 27 26 23 20 20 19 17 11 9 4 0 345 327 308 294 286 276 267 261 258 252 246 239 237 235 232 229 228 227 228 227 228 230 230 232 234 235 240 246 246 244 241
17 19 20 19 16 16 16 15 17 14 8 359 349 341 324 306 292 282 276 272 264 258 252 246 242 239 235 231 228 228 227 226 228 229 230 232 232 233 235 239 242 243 243
11 11 10 9 8 7 11 9 5 2 3 358 354 345 331 320 299 286 281 272 267 261 256 250 247 241 238 235 232 230 229 227 227 228 230 231 231 232 234 234 234 235 237
3 4 3 6 7 7 5 7 7 4 1 356 352 353 343 328 314 310 304 294 279 269 263 255 251 248 242 237 236 234 230 227 226 227 229 230 229 230 232 233 234 234 236
10 2 0 0 1 2 357 357 357 357 359 357 354 350 348 348 341 320 305 297 291 280 268 261 254 249 245 241 237 236 234 232 230 230 230 231 230 230 230 232 233 236 236
357 355 349 356 350 351 355 351 352 351 347 350 349 349 351 351 347 344 329 308 297 290 280 268 262 256 250 245 241 236 235 233 233 233 231 232 232 232 232 232 235 236 236
347 352 337 344 343 345 345 343 342 343 343 343 342 341 337 339 343 343 345 337 310 296 287 282 268 259 250 245 243 239 236 234 232 232 232 232 232 232 234 233 232 233 234
339 338 333 337 338 338 337 334 335 336 337 338 338 336 334 334 336 336 338 337 333 310 291 282 277 268 258 249 243 241 241 238 235 233 231 231 230 229 229 230 229 234 236
325 328 324 326 327 329 330 330 330 330 329 329 331 333 333 330 332 330 329 326 325 326 309 287 279 272 267 258 250 244 241 239 238 236 234 232 229 228 227 226 228 230 232
319 320 319 318 319 317 319 319 320 324 327 327 325 326 329 330 326 325 323 320 316 313 317 308 286 277 271 266 258 250 246 243 239 239 238 236 233 228 227 224 226 228 228
316 314 312 312 312 310 313 312 312 314 316 315 316 318 320 321 322 323 320 317 312 303 306 312 304 282 273 268 262 255 246 242 241 238 238 237 236 230 227 224 225 226 225
312 310 307 308 310 310 311 310 308 307 308 309 309 310 311 312 312 313 314 313 309 303 301 300 304 295 279 269 262 254 249 243 236 235 238 238 237 233 227 226 224 223 223
309 310 307 308 309 308 308 305 305 305 306 304 301 301 303 305 304 304 304 307 308 304 298 292 294 294 283 270 259 248 242 246 242 237 233 233 233 230 227 226 225 226 227
307 309 309 308 307 306 307 306 304 306 303 300 298 298 296 296 296 296 296 298 299 298 295 290 283 280 280 268 255 245 230 242 244 243 240 238 234 231 224 226 225 223 224
308 309 309 308 306 305 306 303 302 302 300 298 297 296 295 293 290 290 289 291 293 292 288 284 279 274 276 274 259 242 227 235 239 240 241 240 231 229 223 223 221 219 214
308 310 308 307 305 306 305 300 299 298 298 298 298 297 295 293 290 287 285 286 285 284 283 281 279 275 270 267 259 238 225 227 234 239 237 236 229 221 217 210 217 210 209
310 309 307 306 305 306 304 304 303 303 301 299 297 296 296 296 294 290 285 282 278 275 274 275 274 270 270 265 265 249 223 219 225 227 225 214 196 196 194 189 199 203 205
312 311 312 312 313 313 312 310 309 306 302 299 296 294 294 294 293 290 289 277 271 265 261 257 257 269 268 271 265 260 240 218 223 216 218 210 202 200 198 201 199 207 208